Saint Ignace, MI

12:33 PM EST on February 26, 2017 (GMT -0500)
Mackinac Island

Weather History for KMCD - December, 2011

Change the Weather History Date:

Thursday, December 29, 2011

  Actual Average Record
Temperature  
Mean Temperature 24 °F -  
Max Temperature 32 °F 26 °F 44 °F (1984)
Min Temperature 16 °F 16 °F -10 °F (1976)
Degree Days  
Heating Degree Days 41    
Moisture  
Dew Point 21 °F    
Average Humidity 85    
Maximum Humidity 99    
Minimum Humidity 67    
Precipitation  
Precipitation 0.01 in - - ()
Sea Level Pressure  
Sea Level Pressure 29.70 in    
Wind  
Wind Speed 5 mph (SE)    
Max Wind Speed 10 mph    
Max Gust Speed 24 mph    
Visibility 6 miles    
Events Snow    
Averages and records for this station are not official NWS values.
T = Trace of Precipitation, MM = Missing Value Source: NWS Daily Summary

Daily Weather History Graph

Daily Weather History Graph

Search for Another Location

Airport or City:

Trip Planner

Search our weather history database for the weather conditions in past years. The results will help you decide how hot, cold, wet, or windy it might be!

Date:

Astronomy

Dec. 29, 2011 Rise Set
Actual Time 8:19 AM EST 5:01 PM EST
Civil Twilight 7:45 AM EST 5:35 PM EST
Nautical Twilight 7:07 AM EST 6:13 PM EST
Astronomical Twilight 6:31 AM EST 6:50 PM EST
Moon 10:55 AM EST (12/29) 10:56 PM EST (12/29)
Length of Visible Light 9h 50m
Length of Day
8h 41m
Waxing Crescent, 26% of the Moon is Illuminated
Dec 29
Waxing Crescent
Jan 1
First Quarter
Jan 9
Full
Jan 16
Last Quarter
Jan 23
New

Hourly Weather History & Observations

Time (EST) Temp. Windchill Dew Point Humidity Pressure Visibility Wind Dir Wind Speed Gust Speed Precip Events Conditions
12:15 AM 17.1 °F 11.7 °F 7.7 °F 67% 29.90 in 10.0 mi South 3.5 mph - N/A   Overcast
12:35 AM 17.2 °F 10.2 °F 8.2 °F 68% 29.89 in 10.0 mi SSE 4.6 mph - N/A Snow Light Snow
12:56 AM 16.7 °F 7.2 °F 9.5 °F 73% 29.88 in 4.0 mi SSE 6.9 mph - N/A Snow Light Snow
1:15 AM 16.5 °F 11.0 °F 10.6 °F 77% 29.87 in 3.0 mi South 3.5 mph - N/A Snow Light Snow
1:35 AM 16.7 °F 8.3 °F 10.2 °F 76% 29.86 in 7.0 mi SSE 5.8 mph - N/A Snow Light Snow
1:56 AM 17.4 °F 12.1 °F 10.9 °F 76% 29.85 in 10.0 mi SSE 3.5 mph - N/A   Overcast
2:35 AM 17.6 °F 10.7 °F 11.3 °F 76% 29.84 in 10.0 mi SSE 4.6 mph - N/A Snow Light Snow
2:56 AM 18.3 °F 13.1 °F 11.3 °F 74% 29.83 in 7.0 mi SSE 3.5 mph - N/A Snow Light Snow
3:15 AM 18.3 °F 9.1 °F 12.2 °F 77% 29.82 in 5.0 mi SSE 6.9 mph - N/A Snow Light Snow
3:35 AM 18.3 °F 13.1 °F 12.7 °F 79% 29.80 in 7.0 mi SSE 3.5 mph - N/A Snow Light Snow
3:56 AM 18.3 °F 10.2 °F 12.9 °F 79% 29.79 in 10.0 mi SSE 5.8 mph - N/A Snow Light Snow
4:15 AM 18.5 °F 11.7 °F 12.9 °F 79% 29.78 in 10.0 mi SSE 4.6 mph - N/A   Overcast
4:35 AM 19.0 °F 12.3 °F 13.3 °F 78% 29.77 in 10.0 mi SSE 4.6 mph - N/A   Overcast
4:56 AM 19.8 °F 11.9 °F 14.0 °F 78% 29.75 in 10.0 mi SSE 5.8 mph - N/A   Overcast
5:15 AM 20.1 °F 13.6 °F 15.3 °F 81% 29.75 in 5.0 mi SE 4.6 mph - N/A Snow Light Snow
5:35 AM 20.1 °F 13.6 °F 16.0 °F 84% 29.74 in 7.0 mi SE 4.6 mph - N/A Snow Light Snow
5:56 AM 20.3 °F 11.5 °F 16.7 °F 86% 29.73 in 7.0 mi SE 6.9 mph - N/A Snow Light Snow
6:15 AM 21.0 °F 14.6 °F 17.1 °F 85% 29.73 in 10.0 mi SE 4.6 mph - N/A Snow Light Snow
6:55 AM 21.9 °F 15.7 °F 18.0 °F 85% 29.72 in 10.0 mi SE 4.6 mph - N/A   Overcast
7:15 AM 22.6 °F 16.5 °F 18.1 °F 83% 29.71 in 10.0 mi SE 4.6 mph - N/A   Overcast
7:36 AM 22.8 °F 16.7 °F 18.1 °F 82% 29.71 in 10.0 mi SE 4.6 mph - N/A   Overcast
7:56 AM 23.0 °F 15.8 °F 17.8 °F 80% 29.70 in 10.0 mi SE 5.8 mph - N/A   Overcast
8:15 AM 23.4 °F - 18.3 °F 81% 29.70 in 10.0 mi Calm Calm - N/A   Overcast
8:36 AM 23.7 °F 15.6 °F 18.5 °F 80% 29.70 in 10.0 mi SE 6.9 mph - N/A   Overcast
8:55 AM 23.9 °F 16.8 °F 18.9 °F 81% 29.70 in 10.0 mi SE 5.8 mph - N/A   Overcast
9:15 AM 24.3 °F 18.4 °F 19.0 °F 80% 29.70 in 10.0 mi SE 4.6 mph - N/A   Overcast
9:36 AM 24.4 °F 18.6 °F 19.2 °F 81% 29.70 in 10.0 mi SE 4.6 mph - N/A   Overcast
9:56 AM 24.8 °F 16.1 °F 19.4 °F 80% 29.70 in 10.0 mi SE 8.1 mph - N/A   Overcast
10:15 AM 25.2 °F 17.3 °F 19.4 °F 79% 29.70 in 10.0 mi SE 6.9 mph - N/A   Overcast
10:36 AM 25.5 °F 17.8 °F 19.9 °F 79% 29.70 in 10.0 mi SE 6.9 mph - N/A   Overcast
11:15 AM 26.2 °F 19.6 °F 20.3 °F 78% 29.68 in 10.0 mi SE 5.8 mph - N/A   Overcast
11:36 AM 26.6 °F 19.1 °F 20.5 °F 78% 29.66 in 10.0 mi SE 6.9 mph - N/A   Overcast
11:56 AM 27.0 °F 21.6 °F 20.7 °F 77% 29.65 in 10.0 mi SE 4.6 mph - N/A   Overcast
12:15 PM 27.5 °F 20.2 °F 20.8 °F 76% 29.64 in 10.0 mi SE 6.9 mph - N/A   Overcast
12:36 PM 27.5 °F 20.2 °F 21.2 °F 77% 29.63 in 10.0 mi SE 6.9 mph 17.3 mph N/A   Overcast
12:55 PM 28.0 °F 21.7 °F 21.9 °F 78% 29.62 in 7.0 mi ESE 5.8 mph 17.3 mph N/A   Overcast
1:35 PM 28.4 °F 22.2 °F 24.4 °F 85% 29.61 in 7.0 mi ESE 5.8 mph - N/A   Overcast
1:55 PM 29.1 °F 23.0 °F 25.5 °F 86% 29.60 in 10.0 mi SE 5.8 mph 21.9 mph N/A   Overcast
2:16 PM 29.3 °F 20.8 °F 26.6 °F 90% 29.60 in 2.0 mi ESE 9.2 mph 19.6 mph N/A Snow Light Snow
2:35 PM 29.7 °F 20.7 °F 27.3 °F 91% 29.60 in 1.5 mi ESE 10.4 mph 24.2 mph N/A Snow Light Snow
2:55 PM 30.0 °F 21.1 °F 28.0 °F 92% 29.60 in 1.2 mi ESE 10.4 mph 19.6 mph N/A Snow Light Snow
3:35 PM 30.9 °F 24.3 °F 29.3 °F 94% 29.60 in 1.2 mi ESE 6.9 mph 20.7 mph N/A Snow Light Snow
4:14 PM 28.9 °F 22.8 °F 27.7 °F 95% 29.61 in 1.5 mi East 5.8 mph 20.7 mph N/A Snow Light Snow
4:35 PM 28.6 °F 19.9 °F 27.7 °F 96% 29.60 in 1.0 mi East 9.2 mph - N/A Snow Light Snow
5:15 PM 28.9 °F 19.8 °F 28.0 °F 96% 29.61 in 2.5 mi East 10.4 mph 17.3 mph N/A Snow Light Snow
5:35 PM 28.9 °F 19.8 °F 28.0 °F 96% 29.62 in 2.5 mi East 10.4 mph 19.6 mph N/A Snow Light Snow
5:55 PM 29.7 °F 23.7 °F 29.1 °F 98% 29.62 in 3.0 mi East 5.8 mph - N/A Snow Light Snow
6:15 PM 31.3 °F 25.6 °F 30.9 °F 99% 29.62 in 3.0 mi ESE 5.8 mph - N/A Snow Light Snow
6:35 PM 31.8 °F - 30.7 °F 96% 29.63 in 2.0 mi Calm Calm - N/A Snow Light Snow
6:55 PM 31.8 °F 28.5 °F 30.6 °F 95% 29.63 in 3.0 mi SSE 3.5 mph - 0.01 in Snow Light Snow
6:59 PM 31.6 °F 28.3 °F 30.4 °F 95% 29.63 in 3.0 mi ESE 3.5 mph - 0.01 in Snow Light Snow
7:15 PM 31.5 °F 25.8 °F 30.2 °F 95% 29.63 in 2.5 mi SSE 5.8 mph - N/A Snow Light Snow
7:55 PM 31.5 °F 28.1 °F 30.4 °F 96% 29.64 in 4.0 mi ESE 3.5 mph - N/A Snow Light Snow
8:16 PM 31.8 °F - 30.7 °F 96% 29.64 in 4.0 mi Calm Calm - N/A Snow Light Snow
8:35 PM 32.0 °F 26.4 °F 30.9 °F 96% 29.64 in 3.0 mi East 5.8 mph - N/A Snow Light Snow
8:55 PM 29.3 °F 21.5 °F 28.6 °F 97% 29.64 in 1.8 mi East 8.1 mph 17.3 mph N/A Snow Light Snow
9:15 PM 29.7 °F 21.3 °F 29.1 °F 98% 29.65 in 2.0 mi East 9.2 mph 19.6 mph N/A Snow Light Snow
9:35 PM 29.3 °F 20.8 °F 28.9 °F 99% 29.65 in 2.5 mi East 9.2 mph 17.3 mph N/A Snow Light Snow
9:55 PM 29.3 °F 23.2 °F 28.8 °F 98% 29.65 in 3.0 mi East 5.8 mph 21.9 mph N/A Snow Light Snow
10:35 PM 28.8 °F 20.9 °F 27.5 °F 95% 29.67 in 2.0 mi East 8.1 mph - N/A Snow Light Snow
10:55 PM 28.2 °F 18.9 °F 27.3 °F 96% 29.67 in 1.8 mi East 10.4 mph 24.2 mph N/A Snow Light Snow
11:35 PM 28.2 °F 19.5 °F 27.1 °F 96% 29.67 in 2.0 mi East 9.2 mph 16.1 mph N/A Snow Light Snow
11:56 PM 28.4 °F 19.7 °F 27.5 °F 96% 29.67 in 1.8 mi East 9.2 mph 24.2 mph N/A Snow Light Snow